Regional Weather Roundup
Issued by NWS

Home | Current Version | Previous Version | Text Only | Print | Product List | Glossary Off
Versions: 1 2 3 4 5 6 7 8 9 10 11 12 13 14 15 16 17 18 19 20 21 22 23 24 25 26 27 28 29 30 31 32 33 34 35 36 37 38 39 40 41 42 43 44 45 46 47 48 49 50

000
ASUS43 KFSD 230310
RWRSD

WEATHER ROUNDUP FOR SOUTH DAKOTA
NATIONAL WEATHER SERVICE SIOUX FALLS SD
1000 PM CDT SAT APR 22 2017

NOTE: "FAIR" INDICATES FEW OR NO CLOUDS BELOW 12,000 FEET WITH NO
SIGNIFICANT WEATHER AND/OR OBSTRUCTIONS TO VISIBILITY.


SDZ001>005-009-010-012>017-230400-
NORTHWEST AND NORTH CENTRAL SOUTH DAKOTA

CITY           SKY/WX    TMP DP  RH WIND       PRES   REMARKS
BUFFALO          N/A     57  40  52 SE5       29.97S
FAITH            N/A     55  37  50 SE12      30.03F
MOBRIDGE       PTCLDY    55  38  52 CALM      30.02S
$$

SDZ012>016-024>037-041>051-057-063-072>074-230400-
SOUTHWEST AND SOUTH CENTRAL SOUTH DAKOTA

CITY           SKY/WX    TMP DP  RH WIND       PRES   REMARKS
RAPID CTY ARPT CLOUDY    48  33  56 S5        30.04S
PIERRE         CLEAR     51  36  56 CALM      30.06S
CUSTER         CLEAR     46  26  45 S7        30.10S
ELLSWORTH AFB  CLOUDY    51  34  52 S7        30.03  HAZE
PHILIP         CLEAR     51  37  58 E3        30.04F
PINE RIDGE     CLEAR     54  31  41 S13       30.09F
SPEARFISH      FAIR      45  36  70 S8        30.05F
WINNER         FAIR      56  33  42 S13       30.12S
$$

SDZ004>011-016>023-039-040-230400-
NORTHEAST SOUTH DAKOTA

CITY           SKY/WX    TMP DP  RH WIND       PRES   REMARKS
ABERDEEN       PTCLDY    50  33  52 S8        30.06S
WATERTOWN      CLEAR     49  39  68 SW8       30.10F
BROOKINGS      CLEAR     53  37  54 SW7       30.13S
SISSETON         N/A     56  38  50 W10       30.05F
$$

SDZ017-020-022-023-036>040-048>070-230400-
SOUTHEAST SOUTH DAKOTA

CITY           SKY/WX    TMP DP  RH WIND       PRES   REMARKS
SIOUX FALLS    PTCLDY    53  39  59 SW3       30.15R
HURON          CLEAR     56  37  49 MISG      30.11S
CHAMBERLAIN    CLEAR     47  38  70 SE8       30.11S
MITCHELL       CLEAR     57  39  51 S7        30.14R
YANKTON        CLEAR     55  34  44 S6        30.16S
$$

ABBREVIATIONS USED IN REMARKS
   TC - TEMPERATURE IN CELSIUS
  WCI - WIND CHILL INDEX
   HX - HEAT INDEX
  VSB - VISIBILITY





USA.gov is the U.S. government's official web portal to all federal, state and local government web resources and services.